Location: Martz Observatory
(42.0083°N, 79.0667°W)
Time: 12:23:00
(UTC-04:00)

BREEZE-M DEB (TANK) - Pass Details

Date: 26 May 2018
Orbit: 404 x 13266 km, 46.0° (Epoch: 21 June)

Event Time Altitude Azimuth Distance (km) Brightness Sun altitude
Exits shadow 04:19:15 16° 239° (WSW) 3,313 6.1 -13.6°
Maximum altitude 04:25:35 74° 157° (SSE) 786 3.5 -12.8°
Drops below altitude 10° 04:28:53 10° 71° (ENE) 1,712 6.4 -12.4°
Sets 04:30:22 0° 69° (ENE) 2,422 7.5 -12.2°
